GFSMA_250_rhum_318.txt.gz
RH
96 100 100 100 92 81 83 67 63 96 100 96 94 100 100 100 100 100 100 84 48 34 27 26 24 23 24 25 27 29 32 33 30 33 48 55 63 99 99 73 50 52 51
100 100 100 100 100 100 98 89 74 66 67 96 99 99 99 100 100 100 100 100 100 67 53 36 28 26 24 23 24 26 26 27 28 35 44 47 60 92 94 75 65 58 52
100 100 100 100 100 100 100 100 100 95 82 81 68 95 97 81 92 100 100 100 100 100 100 99 68 38 29 30 29 28 29 31 39 42 42 42 55 80 75 83 67 59 53
100 100 100 100 100 100 100 100 100 100 99 80 88 82 83 91 83 69 99 100 100 100 100 100 100 100 94 56 36 36 36 35 37 39 40 39 44 86 79 77 70 70 70
78 100 100 100 100 100 100 100 100 100 100 100 100 100 95 92 91 72 64 92 100 100 100 100 100 100 100 100 82 56 38 35 35 36 37 39 40 91 100 86 83 75 86
80 59 72 98 100 100 100 100 100 100 100 100 100 100 98 98 98 100 98 81 86 97 100 100 100 100 100 100 100 100 78 54 45 41 43 41 38 78 100 100 100 100 100
58 92 80 76 87 82 90 100 100 100 100 100 100 100 81 76 70 78 91 93 100 100 96 100 100 100 100 100 100 100 100 100 99 70 54 50 54 54 100 100 100 100 100
14 15 70 92 82 85 80 73 89 100 100 100 100 100 100 79 55 58 68 81 96 77 98 100 99 99 100 95 100 100 100 100 100 100 100 99 100 100 100 100 100 100 100
13 13 14 21 33 41 64 81 87 84 93 100 100 100 99 99 100 85 66 59 81 98 92 63 93 93 72 78 94 96 91 100 100 99 100 100 100 100 100 100 100 100 100
16 15 13 12 13 13 17 28 49 90 90 100 100 100 100 100 100 100 100 72 51 74 89 90 84 64 94 84 91 85 81 97 100 100 97 92 88 94 99 100 100 100 100
16 15 14 15 14 14 14 14 18 38 81 100 100 100 100 100 100 100 100 99 48 59 88 100 100 89 82 67 63 76 96 88 99 100 100 100 96 87 90 99 100 100 100
16 16 15 14 14 14 14 13 13 16 22 91 100 100 100 100 100 100 100 100 92 74 78 86 88 99 98 95 84 81 71 78 97 100 100 100 100 100 98 90 96 99 100
16 16 15 13 13 13 13 13 12 12 12 18 99 100 100 100 100 100 100 100 100 100 100 82 96 77 91 79 82 95 81 95 100 98 100 100 100 100 100 100 100 100 100
16 14 15 15 13 12 13 12 13 12 11 10 15 57 100 100 100 100 100 100 100 100 100 100 90 61 66 68 60 75 88 79 96 100 94 100 100 100 100 100 100 100 100
12 12 11 11 12 12 12 12 12 12 12 11 10 11 39 100 100 100 100 100 100 100 100 100 100 87 97 69 60 66 69 72 75 86 100 100 97 97 99 100 100 100 100
11 10 10 10 10 10 11 10 11 11 11 12 11 10 10 57 100 100 100 100 100 100 100 100 100 100 100 85 64 47 56 52 39 50 63 84 95 88 98 100 90 82 83
10 10 10 11 10 10 9 10 10 10 10 11 11 11 10 10 42 100 100 100 100 100 100 100 100 100 100 97 99 76 49 41 38 40 45 54 96 99 100 99 94 86 69
4 4 4 5 7 8 9 9 9 10 10 10 11 11 10 10 10 35 100 100 100 100 100 100 100 100 100 100 100 100 99 70 51 43 43 42 60 83 72 73 57 64 69
3 3 3 3 3 3 4 6 7 8 9 11 11 11 11 11 10 10 73 100 100 100 100 100 100 100 100 100 100 100 100 100 78 58 49 34 31 43 41 36 53 51 63
3 3 3 3 2 2 3 3 3 5 6 8 10 11 11 10 11 10 11 92 100 100 100 100 100 100 100 100 100 100 97 100 100 100 77 68 35 39 36 32 55 52 52
3 3 3 3 3 3 2 2 2 2 4 5 7 9 11 12 11 10 10 15 100 100 100 100 100 100 100 100 100 100 100 100 100 93 87 87 61 51 55 40 36 39 52
3 3 3 4 3 3 3 3 2 2 2 3 5 6 8 11 12 12 10 10 25 100 100 100 100 100 100 100 100 100 100 100 100 100 100 96 83 64 64 64 53 50 54
3 3 4 4 3 3 3 3 3 3 3 2 3 4 5 7 10 12 12 11 10 34 100 100 100 100 100 100 100 100 100 100 100 100 100 100 100 88 68 77 72 56 52
4 4 3 3 4 3 3 3 3 3 3 3 3 3 4 5 6 10 12 12 11 10 44 100 100 100 100 100 100 100 100 100 100 100 100 100 100 100 98 87 83 66 70
4 4 4 3 4 3 3 3 3 3 3 3 3 3 2 3 5 6 9 12 12 11 10 45 100 100 100 100 100 100 100 88 100 100 100 100 100 100 99 94 99 77 85
4 4 4 4 4 3 3 3 3 3 3 3 3 3 3 3 3 4 5 8 12 12 11 10 23 90 100 100 100 100 100 100 100 100 100 100 100 100 100 100 100 89 93

GFSMA_250_rhum_321.txt.gz
RH
94 100 100 100 100 100 100 81 70 62 68 55 66 98 97 60 88 100 100 100 100 99 64 38 32 33 30 27 26 27 29 32 31 33 34 34 30 38 50 54 83 78 69
100 100 96 100 100 100 100 100 96 79 71 63 61 46 79 80 51 89 100 93 100 100 100 99 82 53 31 27 27 26 26 27 28 29 30 30 29 38 48 47 70 84 72
100 100 100 100 100 100 100 100 100 100 96 76 70 58 55 72 82 61 82 100 89 100 100 100 100 100 73 57 35 29 28 26 25 26 26 28 34 41 44 45 54 78 75
100 99 100 100 100 100 100 100 100 97 99 100 100 99 81 65 60 64 56 95 78 88 98 100 100 100 100 100 100 89 59 39 31 31 32 33 38 43 42 43 52 63 95
93 90 100 100 100 100 100 100 92 100 100 96 97 100 100 96 91 73 68 63 81 77 86 100 100 100 100 100 100 100 100 100 80 44 36 36 36 37 39 43 46 71 90
39 52 76 99 100 100 100 100 100 98 100 100 100 98 93 95 100 100 89 68 78 68 60 78 84 100 100 100 100 100 100 100 100 99 81 60 42 39 40 45 52 97 99
14 16 37 43 78 100 100 100 100 100 100 100 100 100 99 94 100 100 100 86 63 87 84 72 84 70 96 100 100 100 100 100 100 100 100 100 100 87 64 51 53 70 100
18 16 14 24 26 42 74 91 93 98 100 100 100 100 100 100 97 89 90 70 78 83 92 76 70 77 78 85 95 100 100 100 100 100 100 100 100 100 100 98 100 100 100
20 19 18 17 15 15 20 41 76 83 97 99 100 100 100 100 100 100 100 96 86 77 76 75 62 67 77 67 80 87 83 100 100 100 99 100 100 100 100 100 100 100 100
18 20 21 18 16 16 16 15 15 37 80 86 88 89 100 100 100 100 100 100 69 48 56 67 66 66 80 78 85 72 73 72 72 98 92 98 100 100 99 100 97 100 100
21 18 18 18 20 17 16 15 17 15 15 39 76 85 95 100 100 100 100 100 100 80 51 48 57 65 80 69 76 81 81 77 63 70 71 80 88 89 100 92 94 92 98
23 19 18 16 16 17 18 16 16 15 16 15 18 48 81 95 84 100 100 100 100 100 90 64 47 62 78 74 73 62 58 83 81 74 55 76 90 81 89 99 93 92 97
25 23 20 20 20 16 14 16 17 15 16 16 15 15 19 54 79 77 99 100 100 100 100 96 81 56 55 70 100 75 45 40 68 91 80 75 74 93 100 99 100 92 89
21 20 19 19 18 19 18 15 14 17 16 16 17 15 14 14 24 40 46 97 100 100 100 100 100 99 63 59 64 84 85 62 43 64 77 70 73 79 80 84 94 97 84
25 23 20 18 16 16 17 17 16 15 15 16 14 15 15 14 13 12 13 16 43 100 100 100 100 100 100 90 75 71 69 78 81 49 54 74 75 66 78 94 97 94 99
16 14 14 14 14 14 14 14 14 14 14 15 16 17 16 15 15 14 13 12 14 66 100 100 100 100 100 100 100 81 77 59 60 70 88 92 91 75 65 76 100 100 100
14 14 14 14 13 13 13 13 14 14 14 14 14 15 16 16 14 15 14 13 12 14 78 100 100 100 100 100 100 100 100 70 51 53 76 100 100 96 81 72 87 100 100
16 14 12 11 10 9 8 9 10 11 12 14 13 14 14 16 17 16 15 14 13 12 13 91 100 100 100 100 100 100 100 100 83 61 65 100 100 100 78 73 78 57 46
6 5 4 5 4 4 5 5 6 6 7 9 11 13 14 15 15 17 18 16 16 14 13 12 92 100 100 100 100 100 100 100 100 81 67 73 96 99 93 50 54 54 49
4 4 3 3 3 3 3 3 3 4 5 6 7 9 11 12 14 14 15 16 17 16 14 13 13 78 100 100 100 100 100 100 100 100 96 75 87 91 88 82 54 52 42
3 3 3 3 3 2 3 2 2 2 2 3 4 5 7 9 11 12 13 14 15 16 15 15 13 14 97 100 100 100 100 100 100 100 100 100 100 100 100 82 79 60 49
3 4 3 3 3 3 3 3 2 2 2 2 2 3 4 5 7 9 11 12 13 14 15 14 15 14 14 46 100 100 100 100 100 100 100 100 100 100 100 98 75 96 80
4 4 4 4 3 3 3 3 3 3 3 3 3 2 2 3 5 6 8 10 11 14 14 14 14 14 15 15 67 100 100 100 100 100 100 100 100 97 100 100 100 100 100
4 4 4 4 4 3 3 3 3 3 3 3 3 3 3 3 2 4 5 7 9 11 12 13 13 14 14 16 15 87 100 100 100 100 100 100 100 99 92 87 96 100 97
5 4 4 3 3 3 3 3 3 3 3 3 3 3 3 3 3 2 2 4 6 7 9 11 13 14 14 16 16 14 90 100 100 100 100 100 100 100 100 100 100 98 82
5 4 4 3 3 3 3 3 3 3 3 3 3 4 3 3 3 2 2 2 3 6 7 8 10 12 14 14 16 14 14 97 100 100 100 100 100 100 100 100 100 100 100

GFSMA_250_rhum_327.txt.gz
RH
60 70 82 76 86 100 100 100 96 87 74 62 61 72 68 87 97 99 84 97 100 100 100 100 100 84 45 38 39 44 46 45 33 33 35 33 32 32 32 33 33 33 32
85 79 68 81 72 65 96 100 100 100 86 64 62 72 84 73 88 100 99 75 66 92 91 98 100 100 100 84 55 41 35 38 47 42 32 29 30 30 29 29 31 28 29
100 100 100 84 78 90 100 80 88 100 100 93 78 53 78 95 91 92 100 100 70 48 59 77 91 100 100 100 100 100 80 52 39 39 36 32 29 26 26 26 27 27 26
22 52 95 100 100 99 86 100 100 77 87 99 100 86 68 68 98 82 93 100 100 90 57 56 57 76 98 100 100 100 100 100 88 71 61 48 33 29 28 29 29 31 36
16 16 18 41 99 100 100 94 93 100 100 89 75 90 100 98 84 97 97 90 88 85 67 55 69 90 88 99 98 91 100 100 100 100 100 100 100 93 84 72 71 55 50
18 19 18 17 19 44 87 100 100 100 99 100 100 97 77 93 100 100 100 100 84 91 93 73 52 48 61 85 91 81 77 75 94 100 100 100 100 100 100 100 97 86 90
30 29 24 21 20 20 18 20 60 100 100 100 100 100 100 94 83 98 89 100 100 100 100 100 92 75 60 55 69 84 93 94 74 83 100 100 100 100 100 100 100 95 96
35 35 36 38 32 28 24 24 21 26 56 85 99 100 99 100 100 100 80 76 83 100 100 100 100 96 74 70 71 63 63 80 93 86 79 97 90 100 100 100 100 100 100
40 39 36 34 36 39 35 27 25 21 21 25 44 72 94 97 99 96 100 100 79 76 95 100 100 100 100 86 71 67 65 68 72 82 83 91 92 84 99 100 100 100 100
44 41 38 36 33 32 34 38 37 33 29 22 23 25 31 47 71 82 86 96 100 100 80 60 100 100 100 96 66 55 54 59 63 63 70 83 93 97 88 93 97 99 98
43 39 36 35 34 32 32 33 34 38 37 32 30 23 21 23 26 31 43 67 78 98 100 100 73 66 87 100 100 100 87 57 46 46 54 60 80 86 91 95 94 84 72
41 40 40 40 40 38 36 32 30 30 29 32 37 38 34 23 19 22 25 25 33 58 81 96 100 100 89 73 98 100 100 92 74 55 52 53 61 80 91 92 86 93 87
47 39 35 35 36 36 37 37 34 32 29 27 26 26 29 33 32 21 20 24 25 34 40 51 67 92 100 100 90 84 99 100 100 99 70 41 43 53 79 85 82 84 86
73 64 55 46 40 38 36 36 34 33 34 33 33 32 29 27 27 31 30 18 20 28 37 33 43 41 66 100 100 100 98 100 100 100 100 98 53 47 52 44 54 67 77
87 87 81 74 66 59 51 40 34 29 28 29 31 31 29 27 26 27 28 29 23 20 25 39 35 28 27 42 84 100 100 100 98 88 88 75 70 56 64 60 47 36 46
94 92 89 86 81 72 71 64 52 38 28 27 24 24 22 24 24 24 25 27 28 28 22 26 33 41 24 20 25 59 97 100 100 99 85 86 82 65 44 49 56 49 51
72 71 68 70 66 60 50 44 35 31 31 28 26 24 23 22 20 20 21 19 22 25 25 29 33 33 37 31 20 20 36 78 100 100 100 94 80 75 76 56 43 42 48
40 39 34 33 34 31 28 27 24 20 18 16 16 18 15 17 17 17 16 18 22 24 21 22 28 39 36 34 34 22 21 20 43 92 100 100 90 91 94 99 86 65 52
25 25 24 25 25 22 20 19 20 19 18 17 15 14 15 13 13 12 12 14 14 16 18 22 24 25 34 39 35 31 27 23 19 23 56 100 100 100 88 71 74 93 76
24 23 22 21 21 20 19 18 17 16 15 14 14 13 11 9 9 10 10 10 10 11 13 15 16 21 21 29 37 36 30 30 28 20 19 24 68 100 100 100 99 79 88
21 21 20 19 17 16 14 12 12 11 10 9 8 7 6 6 5 5 6 7 7 8 10 11 13 16 18 19 25 32 34 32 28 28 21 20 19 26 96 100 100 100 97
10 10 9 8 7 6 6 5 5 5 4 4 4 4 3 3 3 3 3 4 5 6 6 8 10 11 12 14 18 21 26 29 31 30 31 22 18 20 20 59 100 100 100
5 5 4 4 4 4 4 4 4 4 4 4 3 3 3 3 3 3 2 2 2 3 4 6 7 8 11 12 11 14 17 21 25 30 27 27 20 21 20 19 21 97 100
4 4 4 4 4 4 4 3 3 3 3 3 3 3 3 3 3 2 2 2 2 2 2 3 5 8 8 12 12 12 11 14 18 23 24 23 30 26 23 18 19 20 90
4 4 4 4 4 4 4 3 3 3 3 4 4 4 4 4 3 3 2 2 2 2 2 2 2 4 7 9 11 11 10 10 13 17 20 20 26 30 29 23 19 20 20
4 4 4 4 4 5 4 4 4 4 4 4 4 4 4 4 4 4 3 3 3 3 2 2 2 2 3 5 9 10 10 10 10 13 16 17 25 24 31 34 26 19 22

GFSMA_250_rhum_333.txt.gz
RH
100 100 100 88 86 90 98 100 100 99 91 84 94 76 71 57 49 48 59 89 96 88 63 66 100 100 100 100 100 100 100 73 46 43 50 51 49 50 43 37 38 34 32
27 100 100 100 98 91 81 69 81 98 100 96 79 100 96 87 71 61 56 51 62 92 89 65 76 99 100 100 93 100 100 100 100 87 45 40 43 47 46 45 38 36 31
22 17 27 57 100 100 100 100 80 64 66 88 100 91 92 100 100 100 82 70 69 69 87 94 70 60 81 100 100 100 100 100 100 100 98 58 39 41 43 45 47 47 42
32 33 28 19 16 17 40 88 100 100 93 90 79 74 84 88 97 100 100 100 99 99 93 100 92 64 57 68 94 96 100 100 89 100 100 100 81 52 43 39 38 36 36
35 37 35 37 40 30 20 16 19 48 90 100 100 100 100 80 73 94 99 100 100 100 100 95 95 91 77 68 74 94 100 90 95 100 98 100 100 100 99 80 66 53 45
40 37 36 38 37 41 49 45 25 21 18 19 39 82 100 100 100 90 70 92 100 100 100 100 100 100 92 75 66 85 100 100 100 86 89 100 100 100 100 100 100 93 93
43 40 39 37 37 40 39 44 50 53 42 32 24 18 20 82 100 100 100 100 74 71 87 100 100 100 100 98 71 65 78 100 100 99 92 99 100 100 100 100 100 100 100
59 53 46 44 47 47 48 44 41 42 50 59 52 44 28 20 19 62 98 100 100 100 100 95 80 91 96 100 100 90 77 78 98 100 100 94 87 80 94 100 100 100 100
73 67 66 64 55 52 50 49 50 49 46 47 56 64 59 53 32 22 20 36 93 100 100 100 100 92 85 97 100 100 98 90 79 81 94 100 100 93 77 68 98 100 100
70 64 62 58 59 56 57 60 55 49 50 48 44 47 56 61 66 59 37 28 21 25 59 100 100 100 100 100 97 88 91 100 86 83 75 82 99 98 91 98 96 88 91
44 44 45 55 52 45 45 50 54 56 55 52 54 50 47 53 57 70 83 63 38 37 26 21 55 100 100 100 100 100 92 100 100 94 89 72 69 91 89 100 84 100 92
42 38 36 33 33 31 33 42 48 49 52 55 56 54 50 45 49 52 65 84 90 56 42 45 33 27 62 93 99 100 100 100 99 100 99 86 78 76 78 68 70 89 100
39 36 36 37 38 35 31 29 31 43 48 49 50 49 50 53 52 48 48 63 84 100 82 51 46 42 34 30 50 80 96 100 100 100 100 100 100 88 76 65 59 50 99
40 41 40 41 42 45 47 40 34 34 32 43 49 47 46 49 51 51 50 47 49 64 97 100 67 44 46 45 38 32 39 78 97 100 100 100 100 100 99 94 82 50 50
45 46 52 60 60 61 51 46 43 37 32 30 31 41 44 45 46 46 48 48 45 47 54 69 93 92 57 38 44 48 41 31 44 86 95 99 100 100 100 100 82 94 82
64 61 71 61 50 51 49 48 47 43 39 33 30 29 28 36 40 40 44 47 47 42 40 52 60 72 87 75 54 38 41 46 43 36 49 78 84 93 100 100 100 84 80
64 64 40 46 54 56 47 44 41 41 39 36 31 28 26 25 25 27 32 38 42 45 41 42 42 50 60 71 67 59 45 36 42 47 40 33 34 57 74 89 100 100 100
20 20 24 25 27 22 24 24 24 25 31 32 30 28 25 21 21 22 22 25 29 32 32 40 44 40 39 49 64 65 53 47 39 36 43 47 40 32 31 44 60 79 100
21 19 20 25 25 20 16 15 16 15 15 17 18 17 18 19 22 16 14 17 21 22 25 27 34 37 40 42 44 53 60 54 47 41 39 39 44 44 40 34 30 30 42
30 31 32 31 30 29 28 26 23 23 23 22 20 20 19 16 15 13 12 12 12 12 15 17 23 28 30 32 34 37 46 60 59 48 41 38 39 41 42 42 39 32 31
31 30 28 25 23 22 21 19 18 18 18 18 18 18 19 18 17 15 12 11 10 10 10 10 11 14 21 27 28 28 30 34 41 57 58 45 35 36 39 40 44 44 38
25 22 21 19 18 17 15 14 13 13 12 12 12 12 11 11 10 10 10 10 10 9 8 8 7 7 11 12 16 20 22 26 29 39 38 52 48 32 29 33 37 42 46
18 17 15 14 13 12 10 9 8 8 7 7 6 6 6 6 6 6 6 6 7 7 7 8 7 8 8 9 9 9 11 13 16 22 24 28 38 44 46 28 29 32 38
14 12 10 10 10 10 10 10 9 9 9 8 8 6 5 5 4 4 4 3 3 3 3 4 4 6 7 8 8 8 8 8 9 12 17 15 24 28 37 36 32 28 27
10 11 11 12 11 11 10 9 8 7 6 5 4 4 4 4 4 3 3 3 3 3 3 2 2 3 3 4 4 6 7 8 8 8 10 10 13 13 18 23 27 33 33
12 12 12 12 12 12 10 8 7 7 6 4 4 4 4 4 4 3 3 3 3 3 3 2 2 2 2 3 3 3 3 3 4 6 10 10 8 9 10 13 18 20 25